Qianfan 05-15

operational
NORAD ID: 63173 Int'l Des: 2025-046 Owner: YUANX Country: CN Constellation: qianfan
LEOCIRCULARPOLAR

关于 Qianfan 05-15

正在加载描述...

实时位置

正在加载3D地球...

即将过境

高度历史

Altitude vs Time

uPlot chart will show altitude changes over time

两行轨道根数

1 63173U 25046Q 25304.23621521 .00000064 00000-0 80721-4 0 9995
2 63173 88.9766 324.2981 0009931 245.7694 114.2420 13.50969637 41743
Epoch: Oct 31, 2025 • Age: 11 hours

当前状态

高度 1089.2 km
速度 7.31 km/s
星下点 78.40°N, 38.15°E
发射日期 Mar 11, 2025
运行时间 0.6 years
类型 internet

技术详情

分类 Payload
质量 267.00 kg
干质量 267.00 kg
总质量 267.00 kg
长度 0.30 m
直径 3.00 m
跨度 10.00 m
形状 Box+pan
制造商 GESIH
平台类型 Qianfan
阶段状态 In Orbit
所有者/国家 YUANX/CN

大型星座

Loading constellations...